EST,Max TemperatureF,Mean TemperatureF,Min TemperatureF,Max Dew PointF,MeanDew PointF,Min DewpointF,Max Humidity, Mean Humidity, Min Humidity, Max Sea Level PressureIn, Mean Sea Level PressureIn, Min Sea Level PressureIn, Max VisibilityMiles, Mean VisibilityMiles, Min VisibilityMiles, Max Wind SpeedMPH, Mean Wind SpeedMPH, Max Gust SpeedMPH,PrecipitationIn, CloudCover, Events, WindDirDegrees
2013-2-1,33,26,19,29,12,3,92,53,31,30.44,30.15,29.84,10,10,2,26,8,32,0.00,4,Snow,309
2013-2-2,33,22,12,28,15,6,99,70,36,30.44,30.28,30.05,10,9,2,12,3,20,0.00,4,Snow,205
2013-2-3,36,28,21,31,27,20,99,91,67,30.04,29.95,29.88,10,8,1,13,1,17,0.00,6,Snow,336
2013-2-4,38,28,18,24,18,12,92,57,46,30.17,30.05,29.94,10,10,10,14,6,21,0.00,3,,209
2013-2-5,49,40,30,31,28,22,92,64,49,29.97,29.92,29.87,10,10,10,7,1,,0.00,2,,36
2013-2-6,52,40,27,33,29,24,96,72,43,30.40,30.19,29.98,10,10,5,12,2,17,0.03,2,Thunderstorm,349
2013-2-7,42,32,24,32,27,23,96,75,56,30.49,30.39,30.23,10,10,7,10,2,,0.00,4,,77
2013-2-8,45,38,33,40,34,24,99,84,56,30.22,29.94,29.79,10,8,4,25,8,33,0.26,7,Rain,336
2013-2-9,45,35,24,24,19,13,72,50,32,30.44,30.24,29.99,10,10,10,31,19,44,0.00,0,,327
2013-2-10,47,32,17,28,20,15,94,62,31,30.54,30.43,30.29,10,10,10,10,2,,0.00,0,,153
2013-2-11,57,47,37,52,45,31,100,90,71,30.29,29.98,29.78,10,7,1,15,5,22,0.12,5,Rain,210
2013-2-12,59,46,32,44,31,26,96,58,27,30.03,29.97,29.86,10,10,10,10,2,17,0.00,0,,278
2013-2-13,47,39,32,40,33,28,98,79,60,29.97,29.83,29.69,10,8,2,13,4,17,0.12,5,Rain,26
2013-2-14,50,38,26,35,29,26,100,77,40,30.07,30.00,29.84,10,7,1,6,1,,0.05,0,,247
2013-2-15,61,45,29,39,32,28,97,69,30,30.08,30.03,29.92,10,10,3,18,3,29,0.14,2,Rain-Snow,244
2013-2-16,40,34,30,36,29,16,100,79,50,30.06,29.96,29.89,10,8,1,18,4,25,0.02,6,Rain-Snow,344
2013-2-17,33,28,23,15,9,2,66,46,31,30.27,30.05,29.90,10,10,10,22,12,33,0.00,2,,298
2013-2-18,46,28,11,18,11,6,91,50,22,30.44,30.33,30.22,10,10,10,9,2,,0.00,0,,192
2013-2-19,46,40,33,42,31,18,95,70,50,30.22,29.98,29.79,10,10,4,13,6,21,0.05,4,Rain,204
2013-2-20,45,34,25,28,18,12,96,55,31,30.20,30.05,29.91,10,10,10,18,6,26,0.00,1,,319
2013-2-21,42,33,24,18,15,11,60,49,37,30.36,30.26,30.19,10,10,10,18,9,25,0.00,0,,331
2013-2-22,34,32,30,32,25,17,92,75,57,30.42,30.35,30.27,10,10,2,10,3,,0.01,6,Rain-Snow,75
2013-2-23,45,39,33,43,38,32,100,97,91,30.25,30.02,29.87,10,5,1,12,3,,0.04,8,Rain-Snow,337
2013-2-24,56,45,33,43,33,19,100,68,33,30.17,29.95,29.85,10,8,3,22,8,32,0.00,4,Rain,336
2013-2-25,46,36,25,25,22,18,86,59,38,30.27,30.22,30.17,10,10,10,14,5,,0.00,0,,327
2013-2-26,47,36,25,47,35,22,99,93,80,30.27,30.02,29.63,10,7,3,18,3,28,0.65,5,Rain,60
2013-2-27,59,50,41,46,39,32,100,72,38,29.75,29.67,29.57,10,9,2,12,5,20,0.00,7,,267
2013-2-28,48,44,40,38,30,25,88,59,41,29.79,29.72,29.67,10,10,10,14,4,21,0.00,7,,287